| time (UTC) | temp F | wind direction | speed MPH | gust MPH | rain 1hr in | rain 24hr in | rain mn in | humidity % | barometer mb |
| 20260904074233 | 82 | 3 | 6.0 | 12.0 | 0.00 | 0.52 | 0.00 | 47 | 1016.4 |
| 20260904073727 | 82 | 302 | 4.0 | 10.0 | 0.00 | 0.52 | 0.00 | 47 | 1016.3 |
| 20260904073220 | 81 | 301 | 3.0 | 7.0 | 0.00 | 0.52 | 0.00 | 52 | 1016.3 |
| 20260904072714 | 80 | 281 | 4.0 | 9.0 | 0.00 | 0.52 | 0.00 | 56 | 1016.3 |
| 20260904072208 | 80 | 222 | 5.0 | 9.0 | 0.00 | 0.52 | 0.00 | 56 | 1016.4 |
| 20260904071702 | 80 | 289 | 5.0 | 9.0 | 0.00 | 0.52 | 0.00 | 54 | 1016.3 |
| 20260904071156 | 80 | 307 | 4.0 | 8.0 | 0.00 | 0.52 | 0.00 | 56 | 1016.3 |
| 20260904070650 | 79 | 317 | 3.0 | 6.0 | 0.00 | 0.52 | 0.00 | 56 | 1016.3 |
| 20260904070145 | 78 | 259 | 4.0 | 7.0 | 0.00 | 0.52 | 0.00 | 59 | 1016.2 |
| 20260904065859 | 78 | 304 | 5.0 | 9.0 | 0.00 | 0.52 | 0.00 | 58 | 1016.1 |
| 20260904065132 | 78 | 316 | 5.0 | 9.0 | 0.00 | 0.52 | 0.00 | 58 | 1016.1 |
| 20260904064626 | 78 | 328 | 4.0 | 8.0 | 0.00 | 0.52 | 0.00 | 58 | 1016.0 |
| 20260904064120 | 78 | 293 | 4.0 | 8.0 | 0.00 | 0.52 | 0.00 | 59 | 1016.0 |
| 20260904063614 | 78 | 305 | 3.0 | 6.0 | 0.00 | 0.52 | 0.00 | 56 | 1016.0 |
| 20260904063108 | 79 | 290 | 2.0 | 6.0 | 0.00 | 0.52 | 0.00 | 58 | 1016.0 |
| 20260904062602 | 79 | 298 | 3.0 | 6.0 | 0.00 | 0.52 | 0.00 | 58 | 1016.0 |
| 20260904062318 | 80 | 282 | 2.0 | 6.0 | 0.00 | 0.52 | 0.00 | 57 | 1016.0 |
| 20260904061548 | 80 | 355 | 1.0 | 4.0 | 0.00 | 0.52 | 0.00 | 53 | 1016.0 |
| 20260904061043 | 79 | 356 | 2.0 | 6.0 | 0.00 | 0.52 | 0.00 | 53 | 1015.9 |
| 20260904060536 | 78 | 41 | 2.0 | 6.0 | 0.00 | 0.52 | 0.00 | 54 | 1015.8 |
| 20260904060030 | 78 | 312 | 3.0 | 6.0 | 0.00 | 0.52 | 0.00 | 54 | 1015.8 |
| 20260904055523 | 78 | 6 | 4.0 | 6.0 | 0.00 | 0.52 | 0.00 | 55 | 1015.9 |
| 20260904055017 | 77 | 7 | 5.0 | 11.0 | 0.00 | 0.52 | 0.00 | 57 | 1015.9 |
| 20260904054510 | 77 | 35 | 5.0 | 11.0 | 0.00 | 0.52 | 0.00 | 57 | 1015.9 |
| 20260904054005 | 76 | 30 | 2.0 | 8.0 | 0.00 | 0.52 | 0.00 | 60 | 1015.8 |
| 20260904053459 | 76 | 50 | 1.0 | 4.0 | 0.00 | 0.52 | 0.00 | 60 | 1015.9 |
| 20260904052953 | 76 | 353 | 1.0 | 2.0 | 0.00 | 0.52 | 0.00 | 61 | 1015.8 |
| 20260904052446 | 76 | 353 | 2.0 | 4.0 | 0.00 | 0.52 | 0.00 | 62 | 1015.8 |
| 20260904051940 | 76 | 347 | 3.0 | 6.0 | 0.00 | 0.52 | 0.00 | 63 | 1015.8 |
| 20260904051435 | 76 | 20 | 4.0 | 7.0 | 0.00 | 0.52 | 0.00 | 64 | 1015.7 |
| 20260904050929 | 75 | 337 | 5.0 | 8.0 | 0.00 | 0.52 | 0.00 | 65 | 1015.7 |
| 20260904050423 | 75 | 13 | 6.0 | 13.0 | 0.00 | 0.52 | 0.00 | 67 | 1015.8 |
| 20260904045917 | 75 | 346 | 6.0 | 13.0 | 0.00 | 0.52 | 0.00 | 69 | 1015.7 |
| 20260904045411 | 74 | 302 | 6.0 | 10.0 | 0.00 | 0.52 | 0.00 | 74 | 1015.7 |
| 20260904044905 | 74 | 316 | 6.0 | 11.0 | 0.00 | 0.52 | 0.00 | 75 | 1015.7 |
| 20260904044359 | 74 | 303 | 5.0 | 11.0 | 0.00 | 0.52 | 0.00 | 76 | 1015.6 |
| 20260904044125 | 74 | 307 | 5.0 | 10.0 | 0.00 | 0.52 | 0.00 | 77 | 1015.6 |
| 20260904043357 | 74 | 327 | 3.0 | 7.0 | 0.00 | 0.52 | 0.00 | 78 | 1015.6 |
| 20260904043115 | 74 | 275 | 3.0 | 7.0 | 0.00 | 0.52 | 0.00 | 78 | 1015.5 |
| 20260904042616 | 74 | 308 | 4.0 | 7.0 | 0.00 | 0.52 | 0.00 | 77 | 1015.4 |
| 20260904041855 | 74 | 309 | 4.0 | 7.0 | 0.00 | 0.52 | 0.00 | 77 | 1015.4 |
| 20260904041355 | 74 | 310 | 3.0 | 7.0 | 0.00 | 0.52 | 0.00 | 77 | 1015.3 |
| 20260904041120 | 74 | 311 | 4.0 | 8.0 | 0.00 | 0.52 | 0.00 | 78 | 1015.3 |
| 20260904040353 | 74 | 334 | 4.0 | 8.0 | 0.00 | 0.52 | 0.00 | 76 | 1015.3 |
| 20260904035853 | 74 | 301 | 4.0 | 8.0 | 0.00 | 0.52 | 0.00 | 76 | 1015.3 |
| 20260904035353 | 73 | 311 | 4.0 | 8.0 | 0.00 | 0.52 | 0.00 | 79 | 1015.2 |
| 20260904034850 | 73 | 283 | 5.0 | 9.0 | 0.00 | 0.52 | 0.00 | 80 | 1015.1 |
| 20260904034351 | 73 | 302 | 5.0 | 9.0 | 0.00 | 0.52 | 0.00 | 79 | 1015.2 |
| 20260904033851 | 73 | 293 | 4.0 | 9.0 | 0.00 | 0.52 | 0.00 | 78 | 1015.2 |
| 20260904033349 | 74 | 307 | 4.0 | 8.0 | 0.00 | 0.52 | 0.00 | 78 | 1015.1 |
| 20260904032850 | 74 | 310 | 4.0 | 8.0 | 0.00 | 0.52 | 0.00 | 78 | 1015.1 |
| 20260904032349 | 74 | 296 | 3.0 | 7.0 | 0.00 | 0.52 | 0.00 | 76 | 1015.0 |
| 20260904031848 | 74 | 279 | 3.0 | 5.0 | 0.00 | 0.52 | 0.00 | 77 | 1015.0 |
| 20260904031349 | 74 | 301 | 2.0 | 5.0 | 0.00 | 0.52 | 0.00 | 79 | 1015.0 |
| 20260904031104 | 74 | 288 | 2.0 | 4.0 | 0.00 | 0.52 | 0.00 | 81 | 1015.0 |
| 20260904030337 | 74 | 297 | 2.0 | 5.0 | 0.00 | 0.52 | 0.00 | 82 | 1015.0 |
| 20260904025830 | 74 | 307 | 2.0 | 6.0 | 0.00 | 0.52 | 0.00 | 82 | 1015.0 |
| 20260904025324 | 74 | 304 | 4.0 | 7.0 | 0.00 | 0.52 | 0.00 | 82 | 1015.1 |
| 20260904024819 | 74 | 281 | 4.0 | 8.0 | 0.00 | 0.52 | 0.00 | 82 | 1015.1 |
| 20260904024312 | 74 | 293 | 4.0 | 8.0 | 0.00 | 0.52 | 0.00 | 81 | 1015.1 |
| 20260904023806 | 74 | 290 | 3.0 | 6.0 | 0.00 | 0.52 | 0.00 | 81 | 1014.9 |
| 20260904023301 | 74 | 266 | 2.0 | 6.0 | 0.00 | 0.52 | 0.00 | 82 | 1014.9 |
| 20260904022755 | 74 | 258 | 2.0 | 4.0 | 0.00 | 0.52 | 0.00 | 83 | 1014.8 |
| 20260904022249 | 74 | 283 | 2.0 | 5.0 | 0.00 | 0.52 | 0.00 | 83 | 1014.8 |
| 20260904021742 | 74 | 267 | 3.0 | 6.0 | 0.00 | 0.52 | 0.00 | 83 | 1014.8 |
| 20260904021239 | 74 | 281 | 2.0 | 6.0 | 0.00 | 0.52 | 0.00 | 82 | 1014.8 |
| 20260904020739 | 74 | 232 | 1.0 | 3.0 | 0.00 | 0.52 | 0.00 | 81 | 1014.8 |
| 20260904020237 | 74 | 214 | 1.0 | 3.0 | 0.00 | 0.52 | 0.00 | 80 | 1014.8 |
| 20260904015734 | 74 | 197 | 0.0 | 3.0 | 0.00 | 0.52 | 0.00 | 79 | 1014.8 |
| 20260904015234 | 74 | 150 | 0.0 | 2.0 | 0.00 | 0.52 | 0.00 | 78 | 1014.8 |
| 20260904014732 | 74 | 150 | 0.0 | 2.0 | 0.00 | 0.52 | 0.00 | 78 | 1014.8 |
| 20260904014232 | 74 | 200 | 0.0 | 1.0 | 0.00 | 0.52 | 0.00 | 77 | 1014.7 |
| 20260904013732 | 75 | 200 | 0.0 | 1.0 | 0.00 | 0.52 | 0.00 | 77 | 1014.7 |
| 20260904013232 | 75 | 257 | 0.0 | 1.0 | 0.00 | 0.52 | 0.00 | 77 | 1014.7 |
| 20260904012733 | 74 | 257 | 0.0 | 1.0 | 0.00 | 0.52 | 0.00 | 77 | 1014.6 |
| 20260904012232 | 74 | 257 | 0.0 | 1.0 | 0.00 | 0.52 | 0.00 | 76 | 1014.6 |
| 20260904011733 | 74 | 257 | 0.0 | 1.0 | 0.00 | 0.52 | 0.00 | 76 | 1014.6 |
| 20260904011457 | 74 | 257 | 0.0 | 1.0 | 0.00 | 0.52 | 0.00 | 75 | 1014.5 |
| 20260904010728 | 75 | 257 | 0.0 | 1.0 | 0.00 | 0.55 | 0.00 | 74 | 1014.5 |
| 20260904010228 | 75 | 257 | 0.0 | 2.0 | 0.00 | 0.57 | 0.00 | 74 | 1014.5 |
| 20260904010214 | 75 | 257 | 1.0 | 3.0 | 0.00 | 0.57 | 0.00 | 74 | 1014.5 |
| 20260904005447 | 75 | 257 | 2.0 | 3.0 | 0.00 | 0.57 | 0.00 | 74 | 1014.6 |
| 20260904004729 | 75 | 257 | 1.0 | 3.0 | 0.00 | 0.60 | 0.00 | 74 | 1014.6 |
| 20260904004228 | 74 | 271 | 0.0 | 2.0 | 0.00 | 0.61 | 0.00 | 70 | 1014.6 |
| 20260904003728 | 74 | 295 | 0.0 | 1.0 | 0.00 | 0.61 | 0.00 | 70 | 1014.7 |
| 20260904003228 | 74 | 295 | 0.0 | 1.0 | 0.00 | 0.61 | 0.00 | 69 | 1014.5 |
| 20260904002725 | 74 | 295 | 0.0 | 1.0 | 0.00 | 0.61 | 0.00 | 68 | 1014.5 |
| 20260904002225 | 74 | 295 | 0.0 | 1.0 | 0.00 | 0.61 | 0.00 | 68 | 1014.5 |
| 20260904001725 | 74 | 295 | 0.0 | 1.0 | 0.00 | 0.61 | 0.00 | 70 | 1014.6 |
| 20260904001225 | 74 | 295 | 1.0 | 3.0 | 0.00 | 0.61 | 0.00 | 69 | 1014.5 |
| 20260904000725 | 74 | 295 | 2.0 | 4.0 | 0.00 | 0.61 | 0.00 | 71 | 1014.4 |
| 20260904000226 | 74 | 265 | 1.0 | 4.0 | 0.00 | 0.61 | 0.00 | 70 | 1014.4 |
| 20260903235947 | 74 | 89 | 0.0 | 1.0 | 0.00 | 0.61 | 0.00 | 70 | 1014.4 |
| 20260903235225 | 74 | 89 | 1.0 | 2.0 | 0.00 | 0.61 | 0.00 | 69 | 1014.4 |
| 20260903234723 | 74 | 89 | 1.0 | 2.0 | 0.00 | 0.61 | 0.00 | 69 | 1014.4 |
| 20260903234440 | 74 | 89 | 1.0 | 2.0 | 0.00 | 0.61 | 0.00 | 71 | 1014.4 |
| 20260903233945 | 74 | 105 | 1.0 | 3.0 | 0.00 | 0.61 | 0.00 | 72 | 1014.5 |
| 20260903233211 | 74 | 107 | 2.0 | 3.0 | 0.00 | 0.61 | 0.00 | 74 | 1014.5 |
| 20260903232704 | 73 | 102 | 2.0 | 4.0 | 0.00 | 0.61 | 0.00 | 77 | 1014.6 |
| 20260903232159 | 73 | 93 | 1.0 | 4.0 | 0.00 | 0.61 | 0.00 | 80 | 1014.7 |
| 20260903231656 | 72 | 91 | 2.0 | 4.0 | 0.00 | 0.61 | 0.00 | 83 | 1014.6 |
| 20260903231629 | 71 | 96 | 2.0 | 4.0 | 0.00 | 0.61 | 0.00 | 90 | 1014.7 |
| 20260903230641 | 71 | 82 | 1.0 | 3.0 | 0.00 | 0.61 | 0.00 | 92 | 1014.8 |
| 20260903230135 | 71 | 105 | 0.0 | 2.0 | 0.00 | 0.61 | 0.00 | 94 | 1014.9 |
| 20260903225848 | 71 | 105 | 1.0 | 3.0 | 0.00 | 0.61 | 0.00 | 94 | 1014.8 |
| 20260903225127 | 71 | 105 | 2.0 | 5.0 | 0.00 | 0.61 | 0.00 | 94 | 1014.9 |
| 20260903224617 | 71 | 91 | 3.0 | 5.0 | 0.00 | 0.61 | 0.00 | 94 | 1014.9 |
| 20260903224111 | 71 | 96 | 2.0 | 5.0 | 0.00 | 0.61 | 0.00 | 94 | 1014.9 |
| 20260903223833 | 71 | 96 | 2.0 | 5.0 | 0.00 | 0.61 | 0.00 | 94 | 1015.0 |
| 20260903223319 | 71 | 124 | 1.0 | 3.0 | 0.00 | 0.61 | 0.00 | 95 | 1015.0 |
| 20260903222553 | 71 | 120 | 1.0 | 4.0 | 0.00 | 0.61 | 0.00 | 95 | 1015.0 |
| 20260903222047 | 71 | 96 | 2.0 | 4.0 | 0.00 | 0.61 | 0.00 | 95 | 1015.0 |
| 20260903221541 | 72 | 146 | 2.0 | 5.0 | 0.00 | 0.62 | 0.00 | 95 | 1015.0 |
| 20260903221035 | 72 | 155 | 2.0 | 5.0 | 0.00 | 0.64 | 0.00 | 96 | 1015.0 |
| 20260903220529 | 72 | 148 | 1.0 | 2.0 | 0.00 | 0.64 | 0.00 | 96 | 1015.1 |
| 20260903220023 | 72 | 101 | 1.0 | 2.0 | 0.00 | 0.65 | 0.00 | 96 | 1015.0 |
| 20260903220008 | 71 | 101 | 1.0 | 2.0 | 0.00 | 0.66 | 0.00 | 95 | 1015.0 |
| 20260903215011 | 71 | 101 | 2.0 | 3.0 | 0.00 | 0.68 | 0.00 | 96 | 1014.9 |
| 20260903214730 | 71 | 101 | 1.0 | 3.0 | 0.00 | 0.71 | 0.00 | 96 | 1014.9 |
| 20260903214221 | 71 | 101 | 0.0 | 2.0 | 0.00 | 0.74 | 0.00 | 96 | 1014.9 |
| 20260903213453 | 71 | 101 | 0.0 | 1.0 | 0.00 | 0.75 | 0.00 | 96 | 1014.9 |
| 20260903212947 | 71 | 101 | 0.0 | 1.0 | 0.00 | 0.75 | 0.00 | 96 | 1014.9 |
| 20260903212441 | 71 | 101 | 0.0 | 2.0 | 0.00 | 0.75 | 0.00 | 96 | 1014.8 |
| 20260903212154 | 71 | 101 | 1.0 | 2.0 | 0.00 | 0.75 | 0.00 | 96 | 1014.8 |
| 20260903211429 | 70 | 101 | 0.0 | 2.0 | 0.00 | 0.75 | 0.00 | 96 | 1014.7 |
| 20260903210923 | 70 | 101 | 0.0 | 2.0 | 0.00 | 0.75 | 0.00 | 96 | 1014.9 |
| 20260903210417 | 70 | 101 | 0.0 | 2.0 | 0.00 | 0.75 | 0.00 | 96 | 1014.8 |
| 20260903205911 | 70 | 101 | 1.0 | 2.0 | 0.00 | 0.75 | 0.75 | 95 | 1014.8 |
| 20260903205405 | 70 | 101 | 1.0 | 3.0 | 0.00 | 0.75 | 0.75 | 96 | 1014.7 |
| 20260903204900 | 70 | 103 | 1.0 | 3.0 | 0.00 | 0.75 | 0.75 | 95 | 1014.7 |
| 20260903204625 | 70 | 79 | 1.0 | 2.0 | 0.00 | 0.75 | 0.75 | 96 | 1014.6 |
| 20260903203847 | 70 | 79 | 1.0 | 3.0 | 0.00 | 0.75 | 0.75 | 95 | 1014.7 |
| 20260903203341 | 70 | 79 | 1.0 | 3.0 | 0.00 | 0.75 | 0.75 | 96 | 1014.6 |
| 20260903202835 | 70 | 87 | 1.0 | 3.0 | 0.00 | 0.75 | 0.75 | 96 | 1014.6 |
| 20260903202553 | 71 | 77 | 1.0 | 2.0 | 0.00 | 0.75 | 0.75 | 96 | 1014.5 |
| 20260903201823 | 71 | 79 | 1.0 | 2.0 | 0.00 | 0.75 | 0.75 | 96 | 1014.7 |
| 20260903201317 | 71 | 79 | 1.0 | 2.0 | 0.00 | 0.75 | 0.75 | 96 | 1014.6 |
| 20260903200811 | 71 | 110 | 0.0 | 1.0 | 0.00 | 0.75 | 0.75 | 96 | 1014.5 |
| 20260903200305 | 71 | 110 | 0.0 | 3.0 | 0.00 | 0.75 | 0.75 | 96 | 1014.5 |
| 20260903195759 | 71 | 110 | 1.0 | 3.0 | 0.00 | 0.75 | 0.75 | 96 | 1014.6 |
| 20260903195514 | 71 | 105 | 1.0 | 3.0 | 0.00 | 0.75 | 0.75 | 96 | 1014.4 |
| 20260903194747 | 71 | 93 | 1.0 | 2.0 | 0.00 | 0.75 | 0.75 | 96 | 1014.5 |
| 20260903194241 | 71 | 98 | 1.0 | 2.0 | 0.00 | 0.75 | 0.75 | 96 | 1014.6 |
| 20260903193735 | 72 | 115 | 1.0 | 2.0 | 0.00 | 0.75 | 0.75 | 96 | 1014.5 |
| 20260903193229 | 71 | 256 | 0.0 | 2.0 | 0.00 | 0.75 | 0.75 | 96 | 1014.6 |
| 20260903192724 | 71 | 256 | 0.0 | 0.0 | 0.00 | 0.75 | 0.75 | 96 | 1014.7 |
| 20260903192218 | 71 | 256 | 0.0 | 0.0 | 0.00 | 0.75 | 0.75 | 96 | 1014.7 |
| 20260903191933 | 71 | 256 | 1.0 | 2.0 | 0.00 | 0.75 | 0.75 | 96 | 1014.8 |
| 20260903191205 | 71 | 256 | 1.0 | 3.0 | 0.01 | 0.75 | 0.75 | 96 | 1014.8 |
| 20260903190923 | 71 | 358 | 1.0 | 4.0 | 0.01 | 0.75 | 0.75 | 96 | 1014.7 |
| 20260903190153 | 71 | 114 | 3.0 | 9.0 | 0.03 | 0.75 | 0.75 | 96 | 1014.5 |
| 20260903185647 | 71 | 103 | 5.0 | 9.0 | 0.04 | 0.75 | 0.75 | 95 | 1014.5 |
| 20260903185141 | 71 | 98 | 5.0 | 8.0 | 0.05 | 0.75 | 0.75 | 96 | 1014.5 |
| 20260903185121 | 71 | 71 | 5.0 | 11.0 | 0.06 | 0.75 | 0.75 | 96 | 1014.6 |
| 20260903184129 | 71 | 91 | 5.0 | 11.0 | 0.13 | 0.75 | 0.75 | 96 | 1014.4 |
| 20260903183623 | 70 | 98 | 5.0 | 8.0 | 0.20 | 0.75 | 0.75 | 96 | 1014.5 |
| 20260903183347 | 70 | 100 | 2.0 | 7.0 | 0.27 | 0.75 | 0.75 | 96 | 1014.6 |
| 20260903182611 | 70 | 81 | 1.0 | 3.0 | 0.50 | 0.75 | 0.75 | 96 | 1014.8 |
| 20260903182108 | 70 | 84 | 1.0 | 5.0 | 0.52 | 0.75 | 0.75 | 96 | 1014.9 |
| 20260903181559 | 70 | 98 | 3.0 | 8.0 | 0.52 | 0.75 | 0.75 | 96 | 1014.7 |
| 20260903181054 | 69 | 147 | 3.0 | 8.0 | 0.51 | 0.74 | 0.74 | 95 | 1014.6 |
| 20260903180548 | 69 | 191 | 2.0 | 7.0 | 0.51 | 0.74 | 0.74 | 95 | 1014.8 |
| 20260903180041 | 69 | 219 | 3.0 | 8.0 | 0.49 | 0.72 | 0.72 | 95 | 1014.8 |
| 20260903175757 | 69 | 129 | 3.0 | 8.0 | 0.48 | 0.71 | 0.71 | 95 | 1015.0 |
| 20260903175029 | 69 | 141 | 2.0 | 7.0 | 0.47 | 0.70 | 0.70 | 95 | 1015.0 |
| 20260903174523 | 69 | 150 | 3.0 | 7.0 | 0.44 | 0.67 | 0.67 | 94 | 1015.0 |
| 20260903174022 | 69 | 284 | 3.0 | 13.0 | 0.38 | 0.61 | 0.61 | 93 | 1015.8 |
| 20260903173520 | 70 | 289 | 10.0 | 32.0 | 0.30 | 0.53 | 0.54 | 91 | 1016.2 |
| 20260903173017 | 71 | 223 | 14.0 | 32.0 | 0.21 | 0.44 | 0.44 | 86 | 1016.6 |
| 20260903172518 | 80 | 359 | 9.0 | 25.0 | 0.01 | 0.24 | 0.24 | 60 | 1015.5 |
| 20260903172246 | 85 | 306 | 4.0 | 15.0 | 0.00 | 0.23 | 0.23 | 51 | 1014.4 |
| 20260903171516 | 85 | 334 | 4.0 | 8.0 | 0.00 | 0.23 | 0.23 | 48 | 1014.3 |
| 20260903171014 | 85 | 83 | 5.0 | 10.0 | 0.00 | 0.23 | 0.23 | 49 | 1013.9 |
| 20260903170515 | 85 | 105 | 4.0 | 10.0 | 0.00 | 0.23 | 0.23 | 49 | 1013.6 |
| 20260903170237 | 86 | 160 | 3.0 | 8.0 | 0.00 | 0.23 | 0.23 | 49 | 1013.3 |
| 20260903165731 | 86 | 113 | 4.0 | 9.0 | 0.00 | 0.23 | 0.23 | 49 | 1013.2 |
| 20260903165012 | 86 | 152 | 5.0 | 11.0 | 0.00 | 0.23 | 0.23 | 48 | 1012.9 |
| 20260903164513 | 86 | 147 | 4.0 | 11.0 | 0.00 | 0.23 | 0.23 | 47 | 1013.0 |
| 20260903164013 | 87 | 275 | 4.0 | 12.0 | 0.00 | 0.23 | 0.23 | 47 | 1013.0 |
| 20260903163512 | 87 | 148 | 4.0 | 12.0 | 0.00 | 0.23 | 0.23 | 47 | 1012.9 |
| 20260903163012 | 87 | 153 | 4.0 | 10.0 | 0.00 | 0.23 | 0.23 | 47 | 1012.9 |
| 20260903162512 | 88 | 129 | 3.0 | 7.0 | 0.00 | 0.23 | 0.23 | 46 | 1012.9 |
| 20260903162012 | 89 | 176 | 2.0 | 7.0 | 0.00 | 0.23 | 0.23 | 46 | 1013.1 |
| 20260903161512 | 89 | 228 | 2.0 | 7.0 | 0.00 | 0.23 | 0.23 | 46 | 1013.1 |
| 20260903161225 | 89 | 146 | 2.0 | 7.0 | 0.00 | 0.23 | 0.23 | 46 | 1013.0 |
| 20260903160508 | 89 | 219 | 3.0 | 7.0 | 0.00 | 0.23 | 0.23 | 46 | 1013.0 |
| 20260903160008 | 89 | 183 | 3.0 | 8.0 | 0.00 | 0.23 | 0.23 | 44 | 1012.8 |
| 20260903155505 | 89 | 207 | 3.0 | 10.0 | 0.00 | 0.23 | 0.23 | 46 | 1012.7 |
| 20260903155005 | 89 | 200 | 4.0 | 10.0 | 0.00 | 0.23 | 0.23 | 46 | 1012.7 |
| 20260903154504 | 89 | 229 | 4.0 | 8.0 | 0.00 | 0.23 | 0.23 | 48 | 1012.7 |
| 20260903154005 | 89 | 145 | 4.0 | 7.0 | 0.00 | 0.23 | 0.23 | 47 | 1012.7 |
| 20260903153505 | 89 | 157 | 4.0 | 9.0 | 0.00 | 0.23 | 0.23 | 46 | 1012.5 |
| 20260903153227 | 90 | 198 | 4.0 | 9.0 | 0.00 | 0.23 | 0.23 | 45 | 1012.5 |
| 20260903152504 | 90 | 226 | 4.0 | 8.0 | 0.00 | 0.23 | 0.23 | 44 | 1012.5 |
| 20260903152226 | 90 | 186 | 4.0 | 9.0 | 0.00 | 0.23 | 0.23 | 44 | 1012.5 |
| 20260903151724 | 90 | 205 | 4.0 | 10.0 | 0.00 | 0.23 | 0.23 | 45 | 1012.4 |
| 20260903151005 | 90 | 203 | 5.0 | 10.0 | 0.00 | 0.23 | 0.23 | 47 | 1012.3 |
| 20260903150504 | 90 | 214 | 4.0 | 10.0 | 0.00 | 0.23 | 0.23 | 44 | 1012.3 |
| 20260903150228 | 90 | 210 | 4.0 | 9.0 | 0.00 | 0.23 | 0.23 | 49 | 1012.2 |
| 20260903145730 | 90 | 198 | 3.0 | 9.0 | 0.00 | 0.23 | 0.23 | 52 | 1012.3 |
| 20260903145005 | 90 | 186 | 3.0 | 8.0 | 0.00 | 0.23 | 0.23 | 52 | 1012.2 |
| 20260903144719 | 89 | 207 | 4.0 | 8.0 | 0.00 | 0.23 | 0.23 | 53 | 1012.1 |
| 20260903143953 | 89 | 255 | 5.0 | 9.0 | 0.00 | 0.23 | 0.23 | 54 | 1012.1 |
| 20260903143454 | 89 | 246 | 4.0 | 9.0 | 0.00 | 0.23 | 0.23 | 52 | 1012.1 |
| 20260903143214 | 90 | 215 | 3.0 | 8.0 | 0.00 | 0.23 | 0.23 | 51 | 1012.1 |
| 20260903142451 | 90 | 143 | 4.0 | 9.0 | 0.00 | 0.23 | 0.23 | 49 | 1012.2 |
| 20260903141950 | 89 | 239 | 5.0 | 11.0 | 0.00 | 0.23 | 0.23 | 51 | 1012.2 |
| 20260903141709 | 89 | 242 | 6.0 | 11.0 | 0.00 | 0.23 | 0.23 | 53 | 1012.3 |
| 20260903140950 | 89 | 252 | 5.0 | 10.0 | 0.00 | 0.23 | 0.23 | 50 | 1012.4 |
| 20260903140450 | 89 | 257 | 5.0 | 10.0 | 0.00 | 0.23 | 0.23 | 49 | 1012.5 |
| 20260903135948 | 90 | 276 | 5.0 | 10.0 | 0.00 | 0.23 | 0.23 | 52 | 1012.5 |
| 20260903135703 | 90 | 250 | 5.0 | 9.0 | 0.00 | 0.23 | 0.23 | 49 | 1012.5 |
| 20260903134948 | 90 | 255 | 5.0 | 11.0 | 0.00 | 0.23 | 0.23 | 49 | 1012.5 |
| 20260903134939 | 90 | 176 | 4.0 | 11.0 | 0.00 | 0.23 | 0.23 | 50 | 1012.6 |
| 20260903134438 | 90 | 206 | 4.0 | 10.0 | 0.00 | 0.23 | 0.23 | 51 | 1012.7 |
| 20260903133447 | 90 | 212 | 4.0 | 10.0 | 0.00 | 0.23 | 0.23 | 52 | 1012.7 |
| 20260903132944 | 90 | 255 | 4.0 | 10.0 | 0.00 | 0.23 | 0.23 | 51 | 1012.7 |
| 20260903132707 | 89 | 257 | 6.0 | 12.0 | 0.00 | 0.23 | 0.23 | 53 | 1012.7 |
| 20260903131944 | 89 | 292 | 6.0 | 12.0 | 0.00 | 0.23 | 0.23 | 52 | 1012.7 |
| 20260903131701 | 89 | 250 | 6.0 | 10.0 | 0.00 | 0.23 | 0.23 | 50 | 1012.7 |
| 20260903130944 | 89 | 266 | 6.0 | 12.0 | 0.00 | 0.23 | 0.23 | 49 | 1012.8 |
| 20260903130443 | 89 | 259 | 7.0 | 12.0 | 0.00 | 0.23 | 0.23 | 50 | 1012.8 |
| 20260903125943 | 89 | 233 | 7.0 | 12.0 | 0.00 | 0.23 | 0.23 | 50 | 1012.9 |
| 20260903125444 | 89 | 258 | 6.0 | 12.0 | 0.00 | 0.23 | 0.23 | 49 | 1012.8 |
| 20260903125200 | 89 | 245 | 5.0 | 11.0 | 0.00 | 0.23 | 0.23 | 49 | 1012.9 |
| 20260903124443 | 89 | 276 | 6.0 | 10.0 | 0.00 | 0.23 | 0.23 | 50 | 1013.0 |
| 20260903123943 | 89 | 264 | 6.0 | 10.0 | 0.00 | 0.23 | 0.23 | 49 | 1013.0 |
| 20260903123444 | 89 | 280 | 6.0 | 11.0 | 0.00 | 0.23 | 0.23 | 49 | 1013.0 |
| 20260903123205 | 88 | 275 | 7.0 | 11.0 | 0.00 | 0.23 | 0.23 | 50 | 1013.1 |
| 20260903122444 | 88 | 297 | 7.0 | 10.0 | 0.00 | 0.23 | 0.23 | 49 | 1013.0 |
| 20260903121943 | 88 | 281 | 6.0 | 10.0 | 0.00 | 0.23 | 0.23 | 50 | 1013.1 |
| 20260903121444 | 88 | 271 | 7.0 | 11.0 | 0.00 | 0.23 | 0.23 | 49 | 1013.1 |
| 20260903120944 | 88 | 292 | 7.0 | 11.0 | 0.00 | 0.23 | 0.23 | 49 | 1013.3 |
| 20260903120443 | 88 | 237 | 7.0 | 10.0 | 0.00 | 0.23 | 0.23 | 49 | 1013.3 |
| 20260903115936 | 88 | 259 | 6.0 | 10.0 | 0.00 | 0.23 | 0.23 | 51 | 1013.3 |
| 20260903115431 | 88 | 269 | 7.0 | 12.0 | 0.00 | 0.23 | 0.23 | 51 | 1013.4 |
| 20260903114925 | 88 | 264 | 7.0 | 12.0 | 0.00 | 0.23 | 0.23 | 51 | 1013.5 |
| 20260903114641 | 88 | 281 | 6.0 | 12.0 | 0.00 | 0.23 | 0.23 | 50 | 1013.6 |
| 20260903113912 | 87 | 243 | 7.0 | 11.0 | 0.00 | 0.23 | 0.23 | 52 | 1013.6 |
| 20260903113406 | 87 | 255 | 7.0 | 11.0 | 0.00 | 0.23 | 0.23 | 50 | 1013.6 |
| 20260903112908 | 88 | 264 | 5.0 | 10.0 | 0.00 | 0.23 | 0.23 | 51 | 1013.7 |
| 20260903112407 | 88 | 276 | 5.0 | 12.0 | 0.00 | 0.23 | 0.23 | 52 | 1013.7 |
| 20260903111909 | 88 | 292 | 6.0 | 12.0 | 0.00 | 0.23 | 0.23 | 51 | 1013.7 |
| 20260903111407 | 87 | 261 | 5.0 | 9.0 | 0.00 | 0.23 | 0.23 | 52 | 1013.8 |
| 20260903110907 | 87 | 307 | 5.0 | 10.0 | 0.00 | 0.23 | 0.23 | 53 | 1013.9 |
| 20260903110403 | 87 | 255 | 5.0 | 10.0 | 0.00 | 0.23 | 0.23 | 53 | 1013.8 |
| 20260903105903 | 87 | 274 | 5.0 | 12.0 | 0.00 | 0.23 | 0.23 | 54 | 1013.9 |
| 20260903105403 | 86 | 279 | 7.0 | 12.0 | 0.00 | 0.23 | 0.23 | 55 | 1014.0 |
| 20260903105127 | 86 | 266 | 8.0 | 12.0 | 0.00 | 0.23 | 0.23 | 55 | 1014.1 |
| 20260903104404 | 86 | 264 | 7.0 | 12.0 | 0.00 | 0.23 | 0.23 | 55 | 1014.1 |
| 20260903103903 | 86 | 262 | 6.0 | 11.0 | 0.00 | 0.23 | 0.23 | 55 | 1014.2 |
| 20260903103404 | 86 | 259 | 6.0 | 11.0 | 0.00 | 0.23 | 0.23 | 55 | 1014.3 |
| 20260903102903 | 86 | 299 | 6.0 | 11.0 | 0.00 | 0.23 | 0.23 | 56 | 1014.3 |
| 20260903102404 | 86 | 268 | 6.0 | 11.0 | 0.00 | 0.23 | 0.23 | 55 | 1014.3 |
| 20260903101902 | 86 | 338 | 6.0 | 11.0 | 0.00 | 0.23 | 0.23 | 51 | 1014.4 |
| 20260903101356 | 86 | 297 | 7.0 | 11.0 | 0.00 | 0.23 | 0.23 | 49 | 1014.5 |
| 20260903100849 | 86 | 291 | 7.0 | 11.0 | 0.00 | 0.23 | 0.23 | 49 | 1014.6 |
| 20260903100342 | 85 | 271 | 7.0 | 11.0 | 0.00 | 0.23 | 0.23 | 51 | 1014.6 |
| 20260903095837 | 86 | 311 | 6.0 | 11.0 | 0.00 | 0.23 | 0.23 | 52 | 1014.7 |
| 20260903095330 | 85 | 305 | 6.0 | 11.0 | 0.00 | 0.23 | 0.23 | 54 | 1014.8 |
| 20260903094825 | 85 | 323 | 7.0 | 11.0 | 0.00 | 0.23 | 0.23 | 56 | 1014.8 |
| 20260903094319 | 85 | 289 | 7.0 | 12.0 | 0.00 | 0.23 | 0.23 | 56 | 1014.8 |
| 20260903093812 | 84 | 301 | 7.0 | 12.0 | 0.00 | 0.23 | 0.23 | 56 | 1015.0 |
| 20260903093533 | 84 | 283 | 8.0 | 11.0 | 0.00 | 0.23 | 0.23 | 56 | 1015.0 |
| 20260903093018 | 84 | 316 | 8.0 | 12.0 | 0.00 | 0.23 | 0.23 | 58 | 1015.1 |
| 20260903092255 | 84 | 298 | 7.0 | 12.0 | 0.00 | 0.23 | 0.23 | 58 | 1015.1 |
| 20260903091749 | 84 | 302 | 6.0 | 11.0 | 0.00 | 0.23 | 0.23 | 57 | 1015.1 |
| 20260903091242 | 84 | 304 | 6.0 | 11.0 | 0.00 | 0.23 | 0.23 | 57 | 1015.2 |
| 20260903090736 | 84 | 314 | 6.0 | 10.0 | 0.00 | 0.23 | 0.23 | 57 | 1015.2 |
| 20260903090231 | 84 | 316 | 6.0 | 9.0 | 0.00 | 0.23 | 0.23 | 55 | 1015.2 |
| 20260903085724 | 84 | 291 | 6.0 | 12.0 | 0.00 | 0.23 | 0.23 | 56 | 1015.2 |
| 20260903085219 | 84 | 278 | 8.0 | 12.0 | 0.00 | 0.23 | 0.23 | 55 | 1015.2 |
| 20260903084713 | 83 | 302 | 8.0 | 11.0 | 0.00 | 0.23 | 0.23 | 55 | 1015.2 |
| 20260903084207 | 84 | 309 | 8.0 | 11.0 | 0.00 | 0.23 | 0.23 | 54 | 1015.2 |
| 20260903083701 | 84 | 274 | 7.0 | 12.0 | 0.00 | 0.23 | 0.23 | 54 | 1015.2 |
| 20260903083154 | 84 | 303 | 6.0 | 12.0 | 0.00 | 0.23 | 0.23 | 52 | 1015.2 |
| 20260903082917 | 84 | 304 | 4.0 | 9.0 | 0.00 | 0.23 | 0.23 | 51 | 1015.2 |
| 20260903082403 | 84 | 279 | 3.0 | 7.0 | 0.00 | 0.23 | 0.23 | 53 | 1015.2 |
| 20260903081637 | 84 | 359 | 4.0 | 8.0 | 0.00 | 0.23 | 0.23 | 52 | 1015.3 |
| 20260903081131 | 83 | 303 | 5.0 | 8.0 | 0.00 | 0.23 | 0.23 | 56 | 1015.3 |
| 20260903080625 | 83 | 11 | 5.0 | 8.0 | 0.00 | 0.23 | 0.23 | 56 | 1015.3 |
| 20260903080114 | 83 | 295 | 5.0 | 9.0 | 0.00 | 0.23 | 0.23 | 57 | 1015.3 |
| 20260903075609 | 83 | 264 | 4.0 | 9.0 | 0.00 | 0.23 | 0.23 | 57 | 1015.3 |
| 20260903075102 | 82 | 276 | 4.0 | 9.0 | 0.00 | 0.23 | 0.23 | 59 | 1015.3 |
| 20260903074557 | 82 | 311 | 3.0 | 9.0 | 0.00 | 0.23 | 0.23 | 62 | 1015.4 |